RH
82 83 79 65 57 56 57 58 56 56 57 53 48 48 47 44 44 44 45 45 45 46 49 51 52 51 50 51 52 54 57 60 58 52 51 56 58 56 56 58 60 59 59 60 59 59 60 59 57 57 57 60 62 61 63 66 66 64 60 54 51 49 44 39 35 33 29 24 18 16 15 14 14 15 16 18 21 21 22 23 23 23 23 23 23
86 88 82 70 64 61 60 60 58 58 59 55 51 50 47 44 42 42 44 44 44 48 52 52 50 49 51 54 55 57 60 62 60 54 51 54 55 54 55 58 58 56 58 58 57 58 60 59 58 56 55 58 60 59 62 66 66 62 56 50 48 47 44 40 35 30 29 28 24 21 20 17 15 16 17 19 22 23 24 24 24 24 26 28 29
96 94 83 76 70 64 63 65 63 61 61 58 55 49 45 43 42 41 43 45 47 50 53 54 51 49 52 56 59 58 57 58 60 59 56 55 54 52 53 56 57 57 57 56 56 59 62 61 57 54 54 57 59 58 61 64 62 56 52 49 46 43 42 41 34 29 32 34 31 27 24 20 18 19 21 22 23 25 26 27 28 29 31 32 33
100 92 81 80 78 68 67 70 67 64 63 61 56 49 44 43 43 42 44 48 51 51 52 54 53 50 51 55 58 56 52 51 55 57 56 55 55 53 52 53 55 57 56 55 57 60 60 57 55 54 54 57 59 60 60 60 56 53 52 51 47 42 42 42 35 30 33 35 34 32 26 21 20 22 25 27 27 26 27 30 32 33 34 35 36
94 88 81 81 80 73 70 73 71 67 65 63 58 52 48 46 44 44 45 51 53 50 51 56 54 47 46 49 52 54 54 53 53 52 51 50 51 52 53 53 54 56 56 55 57 59 57 54 53 54 53 55 59 62 62 58 55 55 53 49 46 39 37 40 36 30 33 36 35 33 29 25 25 26 29 32 33 32 32 34 35 36 38 39 40
85 86 83 80 80 76 70 70 71 70 68 67 63 56 51 49 47 47 48 50 52 51 53 57 54 47 44 46 50 56 59 59 55 51 49 48 48 49 51 51 51 51 52 52 53 53 53 54 54 52 52 54 58 61 61 58 57 56 51 46 45 36 28 32 33 29 33 39 39 36 33 32 31 31 34 37 39 39 38 38 39 40 41 42 43
75 79 79 78 80 80 75 67 65 67 69 70 68 61 55 53 50 51 51 51 52 54 56 57 57 54 50 49 52 55 59 60 57 52 50 48 48 49 49 49 48 49 49 49 49 48 49 53 54 52 53 57 60 60 58 56 55 54 50 45 43 38 30 30 32 31 35 40 40 39 40 43 42 40 40 41 41 42 42 43 44 45 45 44 43
70 71 71 71 72 76 80 76 68 65 67 70 71 66 61 57 53 54 55 55 55 57 58 59 61 61 57 54 53 54 56 58 56 52 50 48 48 48 48 47 46 47 47 46 47 46 44 47 51 54 57 60 60 59 57 54 52 51 49 45 43 42 39 37 38 41 42 42 41 42 45 49 49 48 48 46 44 45 46 46 47 47 48 47 45
69 67 67 70 70 69 75 81 78 73 71 74 75 71 66 60 57 59 61 60 59 58 57 60 63 65 63 58 53 53 55 55 52 50 48 47 47 46 45 45 43 42 42 42 45 43 39 41 46 50 57 60 58 58 57 54 50 49 49 46 45 44 43 42 45 48 48 47 46 47 49 50 50 50 51 50 49 49 50 51 51 51 52 51 48
70 69 68 70 72 71 71 75 79 81 83 82 79 76 71 63 62 65 65 63 62 60 59 61 64 66 66 62 55 52 54 54 51 46 44 44 46 48 47 45 44 43 40 40 41 40 37 40 42 44 50 55 57 59 58 55 52 51 49 47 46 46 45 47 50 51 50 50 50 50 50 52 54 54 55 57 56 56 56 57 57 56 56 54 51
70 70 69 68 72 78 79 77 77 83 89 89 84 79 74 69 67 67 67 66 65 62 62 64 65 66 68 67 62 57 54 54 52 48 43 41 44 50 52 49 46 46 43 39 38 38 37 40 42 42 45 50 54 58 59 60 58 56 53 50 49 49 49 51 52 53 53 52 51 51 51 51 53 55 57 60 60 59 60 61 61 61 60 57 55
65 68 69 68 71 77 84 84 81 82 88 92 89 82 77 75 71 67 66 67 66 64 66 67 67 67 69 70 70 66 59 56 55 51 44 39 41 47 52 52 49 48 47 43 40 39 39 39 39 40 44 48 51 54 56 59 60 59 57 54 52 51 52 52 52 54 55 55 54 54 54 53 53 54 56 57 56 56 57 59 60 61 60 59 57
60 65 67 68 70 74 79 84 86 88 91 93 92 86 81 79 74 68 67 68 68 68 69 68 67 68 70 72 73 70 65 62 60 56 48 42 40 43 50 53 52 50 51 49 47 45 44 42 41 41 43 45 48 50 52 53 54 55 55 55 54 54 54 54 55 55 56 57 56 56 56 54 53 53 53 52 51 51 50 52 53 53 54 54 53
59 64 67 70 73 75 77 80 87 92 93 92 93 91 87 82 76 70 70 70 70 71 71 70 68 69 73 75 72 69 67 67 66 62 53 45 41 41 45 49 48 47 49 49 49 50 49 47 45 42 39 39 40 43 45 46 47 49 51 53 53 54 54 55 56 56 56 56 55 55 55 54 51 51 50 49 48 49 50 52 53 52 52 53 53
63 67 71 72 75 80 82 82 86 90 91 91 93 93 90 86 78 74 74 74 74 74 73 71 70 72 77 78 72 68 68 68 69 65 56 49 44 41 43 46 46 46 47 46 46 47 46 44 44 44 42 40 38 38 40 42 44 45 47 49 50 51 53 54 54 55 55 54 52 52 52 52 51 51 50 49 49 50 51 52 54 54 55 56 56
67 70 73 75 77 82 86 88 89 90 92 93 93 92 91 87 82 79 80 80 79 77 76 74 73 75 79 79 74 72 72 71 69 66 59 53 48 44 44 48 48 48 48 46 45 46 45 43 45 47 49 50 49 48 48 49 49 48 47 47 47 48 49 50 50 50 51 51 50 50 51 51 51 51 51 51 51 52 53 54 56 57 58 59 59
72 72 73 75 79 83 87 91 94 93 94 95 93 93 93 89 85 84 83 83 81 79 78 76 75 77 80 80 80 81 81 77 73 69 62 57 54 52 51 50 51 50 49 48 48 50 50 47 48 50 51 54 56 56 56 57 58 57 56 54 52 51 50 50 50 50 49 49 50 51 52 53 53 54 55 57 58 60 61 62 63 65 66 65 64
78 77 76 78 83 89 92 95 97 97 98 99 97 96 96 93 90 90 87 85 83 80 78 76 77 80 82 82 84 86 84 82 79 74 67 61 58 56 53 50 50 52 51 50 50 51 52 52 52 52 53 54 56 57 58 59 60 61 62 62 61 61 60 59 57 56 55 54 55 56 58 59 61 63 64 66 68 69 70 68 68 68 66 66 66
77 82 86 87 90 93 94 96 98 98 99 99 98 98 97 96 96 95 91 86 82 81 79 79 80 84 86 85 86 87 85 83 82 80 75 69 63 59 57 54 54 55 53 51 51 52 55 57 58 57 57 58 59 60 60 61 62 62 62 62 62 61 62 61 60 59 58 58 58 59 60 62 63 64 64 65 66 67 66 64 63 64 64 65 68
72 76 83 87 90 92 93 93 95 97 97 97 97 97 97 95 95 94 91 86 83 83 84 85 87 89 90 90 90 89 87 84 84 84 82 78 72 65 61 59 58 57 54 52 52 53 54 56 58 58 59 59 59 59 58 58 57 56 56 56 56 57 57 57 56 56 56 57 57 56 56 56 55 55 56 57 59 62 62 62 63 67 72 74 76
72 73 76 80 84 89 93 94 94 96 96 97 97 97 98 97 96 95 93 90 88 89 90 92 93 93 93 93 92 91 90 88 87 88 87 86 83 75 67 63 61 58 54 52 52 52 51 51 52 52 52 52 52 53 53 52 52 52 52 52 53 53 52 51 50 50 51 52 53 53 53 53 55 56 57 59 61 64 65 66 68 73 80 84 85
75 76 78 80 82 85 91 95 96 96 96 97 98 98 98 98 97 97 96 94 93 94 95 95 95 95 94 95 94 94 94 92 91 91 91 91 89 83 76 72 68 62 58 57 57 56 53 52 52 53 54 55 55 55 56 56 56 55 55 55 56 56 55 55 56 56 57 59 61 62 63 64 66 67 69 70 71 70 69 69 71 72 74 75 75
75 76 78 81 83 85 89 94 96 96 96 97 97 97 96 96 96 96 96 95 95 96 96 95 94 94 93 93 92 93 93 92 90 90 92 92 91 87 83 82 79 74 70 70 70 69 67 65 64 66 68 68 67 67 67 67 66 65 66 67 68 69 70 71 72 73 74 73 73 73 73 71 71 71 71 70 69 67 64 62 61 60 57 55 52
76 78 78 80 81 83 88 94 97 97 97 97 96 96 96 96 95 95 95 95 96 96 97 96 94 93 92 91 89 88 87 86 84 83 84 84 82 81 81 81 80 77 74 72 71 71 72 72 70 70 70 69 70 71 71 72 72 72 72 72 72 72 72 72 72 70 69 66 65 64 62 60 59 57 56 55 53 52 49 47 46 45 44 42 40
77 80 81 81 81 81 83 89 95 96 97 97 97 97 97 97 96 96 96 95 95 96 96 96 94 93 91 89 87 85 84 84 83 81 80 79 77 76 76 76 75 73 70 70 68 68 69 70 70 69 68 69 71 72 73 72 71 70 69 67 65 64 62 59 57 53 51 50 49 48 47 46 45 44 42 41 41 40 38 36 34 34 33 32 32
80 82 84 84 84 83 82 84 89 92 93 95 95 96 97 97 97 97 96 96 95 94 94 94 93 93 92 89 87 87 88 88 86 82 80 78 77 76 75 74 73 71 70 71 71 71 70 70 71 70 70 69 68 67 65 64 61 59 57 55 52 50 49 47 44 42 41 40 40 38 38 37 36 35 34 33 33 32 31 29 28 26 26 26 26
80 82 85 85 85 85 84 84 86 87 89 90 91 92 93 94 95 95 95 95 95 94 94 93 93 93 92 91 91 90 89 87 84 81 78 77 77 76 74 73 73 71 71 71 70 70 69 69 68 66 64 61 59 56 55 54 52 49 47 45 42 41 40 38 37 36 35 33 33 33 33 32 31 30 29 29 29 29 28 27 26 24 23 23 23
81 82 83 84 85 85 84 84 85 86 87 87 87 87 87 89 92 94 95 94 94 93 93 93 93 92 92 92 93 91 88 87 85 81 78 77 77 76 75 74 72 71 69 68 67 66 65 63 61 59 58 56 55 53 51 49 46 44 41 39 36 35 33 33 32 32 31 30 30 30 29 28 27 26 26 26 25 25 24 23 23 21 20 21 21
83 82 82 82 83 84 84 84 84 84 85 85 85 83 82 82 84 87 91 93 92 92 91 90 90 91 91 91 91 89 87 85 82 78 75 74 73 72 70 68 67 65 63 61 60 59 58 56 55 55 54 52 49 46 44 41 38 36 34 32 32 31 30 29 28 28 28 28 28 27 26 25 24 23 23 22 21 22 22 23 23 22 22 21 21
83 82 81 80 80 80 82 83 82 82 82 82 83 82 80 78 77 77 80 83 85 85 85 85 84 85 84 84 85 85 82 77 72 70 68 67 66 64 62 60 58 58 57 56 54 53 52 52 51 50 47 44 41 39 36 33 31 30 29 29 28 27 26 26 26 26 27 26 26 25 24 24 22 21 20 19 19 20 21 22 22 24 24 25 24
82 80 79 78 76 75 76 78 79 79 78 78 79 79 78 77 76 74 73 74 74 74 75 74 74 75 74 73 73 72 70 66 63 62 61 60 59 57 55 54 54 55 55 54 52 50 48 46 44 42 40 38 35 34 32 30 30 29 28 28 28 27 28 28 28 27 26 25 25 24 23 22 21 20 20 19 19 20 21 23 25 26 28 30 30
72 73 74 74 73 71 71 71 73 74 74 75 75 75 73 72 72 72 71 70 69 68 67 67 68 68 67 65 64 62 60 59 58 57 57 57 57 56 55 55 55 55 53 50 47 46 44 42 40 39 37 35 33 32 31 30 30 30 29 28 29 29 29 29 28 28 26 25 24 23 22 21 21 21 21 21 22 22 23 26 28 30 32 34 35
61 62 63 64 65 66 67 68 68 69 69 70 71 69 67 66 67 67 67 67 66 65 64 63 63 62 61 60 59 58 57 56 55 55 55 55 54 54 53 53 52 50 48 45 43 43 42 41 39 38 36 33 32 31 30 29 29 29 30 30 30 29 28 28 27 26 24 23 23 22 22 23 23 23 23 23 24 26 27 29 32 34 36 37 38
57 56 55 56 58 59 61 63 64 64 64 65 66 65 64 62 62 63 63 64 64 62 61 59 58 57 56 55 54 53 53 52 51 50 50 50 50 48 47 46 44 43 42 41 40 39 39 37 34 32 31 29 28 27 26 27 28 29 30 30 30 28 27 27 26 25 24 24 25 25 26 27 27 26 27 27 27 30 33 35 37 39 40 40 39
54 54 53 52 53 54 55 57 58 59 60 60 59 60 60 59 58 58 58 59 59 59 58 57 55 54 53 52 51 50 49 47 45 44 44 45 45 44 42 40 39 39 38 37 37 36 34 32 28 26 26 26 26 26 26 27 28 28 28 28 27 27 27 27 26 26 27 28 28 28 28 29 29 29 31 32 33 36 39 42 43 45 45 45 45
53 53 53 52 51 51 52 53 52 53 54 55 55 54 53 53 53 52 51 51 53 54 55 54 53 53 51 50 49 47 45 43 41 40 40 41 42 41 40 38 38 37 36 36 35 32 29 26 24 25 26 27 27 28 29 29 29 29 28 28 29 29 29 28 28 28 29 29 29 30 30 31 33 35 37 39 41 44 47 47 48 49 50 51 54
49 50 51 49 48 48 48 49 48 48 49 51 51 51 49 48 48 47 46 46 47 49 50 50 50 49 47 46 46 45 43 41 40 40 40 40 40 38 37 37 36 36 35 34 32 28 24 23 24 26 27 27 27 29 31 30 29 29 30 31 31 30 29 29 29 29 30 30 31 32 34 35 38 41 43 45 46 48 50 51 52 55 57 57 61
41 45 45 44 43 44 44 43 43 44 45 45 45 44 44 44 44 43 42 43 43 44 44 46 46 46 44 42 42 43 42 41 40 38 37 38 38 37 36 35 34 33 31 29 27 24 23 23 25 26 27 28 29 31 32 32 31 31 31 31 31 31 31 31 31 31 31 32 33 34 35 37 39 42 45 46 48 50 53 54 57 62 63 63 67
38 42 43 41 40 41 41 40 39 40 40 40 39 38 37 38 39 38 38 39 39 39 39 40 40 41 39 38 39 40 40 39 39 38 35 33 34 34 32 31 29 28 27 26 25 25 25 26 27 27 28 30 32 32 32 32 32 32 32 32 32 33 34 34 34 35 35 35 35 36 37 39 41 43 45 47 49 52 56 59 63 67 68 67 70
39 44 45 45 44 43 42 41 40 38 37 38 37 37 35 35 34 34 34 35 36 36 35 35 36 36 35 35 37 39 38 38 40 38 34 30 30 29 28 28 27 27 28 29 29 29 29 29 29 28 29 31 31 31 31 32 33 34 36 37 37 37 37 37 38 38 39 39 38 37 38 41 43 45 46 47 50 53 58 63 67 71 73 72 74
44 49 49 50 51 50 47 44 42 39 37 37 37 36 35 34 33 32 31 31 33 34 34 33 33 34 33 34 36 38 39 40 40 37 32 29 29 29 29 30 30 30 31 32 32 31 30 30 29 28 28 29 30 31 33 34 36 37 39 40 41 41 41 40 39 39 39 40 39 39 40 43 46 47 48 49 51 53 57 63 70 75 76 76 78
49 55 54 52 51 49 47 45 44 42 40 38 37 36 34 33 33 32 31 31 33 34 33 33 35 35 34 36 39 40 40 40 38 35 32 32 33 33 33 33 33 33 33 33 32 32 31 30 30 29 30 31 33 35 37 39 41 41 41 42 42 42 41 40 40 40 41 41 39 40 43 46 47 49 51 52 53 54 56 62 71 77 80 80 82
51 57 58 55 52 48 45 44 45 44 41 39 37 35 34 34 35 35 33 31 33 35 36 36 37 38 37 39 43 43 40 38 36 35 35 36 35 35 35 35 35 35 34 33 33 32 32 32 32 33 34 36 38 39 41 42 44 45 44 43 42 41 40 39 40 43 44 43 42 43 45 47 48 49 52 54 55 56 58 63 71 77 81 84 86
57 64 65 62 58 54 50 47 46 45 41 37 35 35 35 36 38 38 36 34 35 38 39 38 39 40 42 44 44 43 41 39 39 39 38 38 37 36 36 36 36 36 35 35 35 35 35 36 36 36 38 41 43 44 44 43 44 45 46 43 41 40 41 41 43 44 46 46 46 47 49 50 51 52 54 55 56 57 59 64 70 76 79 82 85
71 76 75 71 67 62 55 51 48 46 41 38 38 38 38 39 41 41 38 38 40 42 41 41 42 44 45 46 45 44 42 41 41 42 41 39 38 37 37 36 36 36 36 35 36 36 37 38 39 41 43 45 46 46 46 44 44 46 46 43 40 40 41 43 45 46 47 47 49 51 52 53 54 54 55 56 57 57 60 63 69 74 77 79 80
80 85 82 78 73 68 60 54 52 50 47 43 42 43 42 42 45 45 43 44 46 47 47 48 48 48 48 47 45 44 43 42 41 42 42 41 39 39 38 36 36 36 36 36 37 39 40 42 43 45 45 46 45 46 46 45 45 46 45 42 39 38 39 41 44 47 49 50 52 54 55 55 55 55 56 57 58 59 62 65 68 72 75 76 76
77 82 83 81 77 72 66 59 57 59 59 54 50 50 50 49 50 51 49 49 50 52 53 53 51 49 49 48 45 43 42 42 42 43 44 44 43 42 41 39 38 37 37 36 37 38 41 44 46 47 46 46 46 46 46 46 45 45 43 40 37 37 39 42 46 49 51 53 54 55 56 56 56 57 59 60 61 62 65 67 68 69 72 73 74
76 81 83 83 80 77 73 67 63 66 70 67 60 58 58 57 57 58 56 54 55 57 57 55 52 49 47 45 44 43 42 43 45 46 47 46 46 45 43 42 41 39 37 37 36 35 36 38 39 40 41 43 45 46 46 45 43 41 38 37 36 38 40 44 48 52 55 56 57 57 58 58 59 61 64 66 66 67 68 68 69 69 70 71 73
80 81 82 83 81 79 78 75 69 67 71 72 68 64 62 60 59 59 58 57 59 60 58 54 51 47 44 44 46 47 47 47 49 50 49 47 45 43 41 39 38 37 36 36 36 34 32 31 31 30 31 34 39 43 43 41 39 37 37 37 39 41 43 47 52 55 57 58 59 60 60 61 62 63 65 68 70 71 71 72 73 73 71 69 71
78 77 77 79 80 79 79 78 75 71 70 71 70 68 65 61 59 57 56 56 58 58 55 51 49 47 46 48 51 52 52 51 51 51 50 47 44 42 40 36 34 35 36 37 36 34 31 29 28 27 27 29 32 36 37 37 37 38 40 42 45 47 49 52 55 57 58 60 62 63 63 63 63 63 64 66 69 71 73 74 76 76 75 73 73
72 73 73 74 77 79 80 80 78 75 71 70 69 68 66 64 61 56 53 53 55 55 53 51 51 52 53 54 55 54 53 51 49 48 48 46 43 42 40 36 32 32 35 37 36 34 30 28 28 29 29 30 31 34 37 39 40 42 45 48 50 52 53 54 56 58 61 64 66 66 65 64 63 63 64 64 65 66 69 72 74 75 76 78 77